TimeIST,TemperatureF,Dew PointF,Humidity,Sea Level PressureIn,VisibilityMPH,Wind Direction,Wind SpeedMPH,Gust SpeedMPH,PrecipitationIn,Events,Conditions,WindDirDegrees,DateUTC
12:00 AM,57.2,57.2,100,30.01,0.7,Calm,Calm,-,N/A,,Mist,0,2012-11-15 18:30:00
12:30 AM,57.2,57.2,100,30.01,0.6,Calm,Calm,-,N/A,,Mist,0,2012-11-15 19:00:00
1:00 AM,57.2,57.2,100,30.01,0.5,Calm,Calm,-,N/A,,Mist,0,2012-11-15 19:30:00
1:30 AM,57.2,57.2,100,30.01,0.5,Calm,Calm,-,N/A,,Mist,0,2012-11-15 20:00:00
2:30 AM,53.6,53.6,100,29.98,0.3,Calm,Calm,-,N/A,Fog,Fog,0,2012-11-15 21:00:00
3:00 AM,53.6,53.6,100,29.98,0.3,Calm,Calm,-,N/A,Fog,Fog,0,2012-11-15 21:30:00
3:30 AM,53.6,53.6,100,30.01,0.2,Calm,Calm,-,N/A,Fog,Fog,0,2012-11-15 22:00:00
4:00 AM,51.8,51.8,100,29.98,0.4,Calm,Calm,-,N/A,Fog,Fog,0,2012-11-15 22:30:00
4:30 AM,51.8,51.8,100,29.98,0.4,Calm,Calm,-,N/A,Fog,Fog,0,2012-11-15 23:00:00
5:00 AM,51.8,51.8,100,30.01,0.4,Calm,Calm,-,N/A,Fog,Fog,0,2012-11-15 23:30:00
5:30 AM,50,50,100,30.01,0,Calm,Calm,,,Fog,Partial Fog,,2012-11-16 00:00:00
5:30 AM,51.8,51.8,100,30.01,0.4,Calm,Calm,-,N/A,Fog,Fog,0,2012-11-16 00:00:00
6:00 AM,48.2,48.2,100,30.01,0.4,Calm,Calm,-,N/A,Fog,Fog,0,2012-11-16 00:30:00
6:30 AM,48.2,48.2,100,30.01,0.4,Calm,Calm,-,N/A,Fog,Fog,0,2012-11-16 01:00:00
7:30 AM,48.2,48.2,100,30.04,0.1,Calm,Calm,-,N/A,Fog,Fog,0,2012-11-16 02:00:00
8:00 AM,48.2,48.2,100,30.04,0.1,Calm,Calm,-,N/A,Fog,Fog,0,2012-11-16 02:30:00
8:30 AM,53,52,96,30.07,0,Calm,Calm,,,Fog,Partial Fog,,2012-11-16 03:00:00
8:30 AM,50.0,50.0,100,30.06,0.2,Calm,Calm,-,N/A,Fog,Fog,0,2012-11-16 03:00:00
9:00 AM,55.4,53.6,94,30.06,0.3,Calm,Calm,-,N/A,Fog,Fog,0,2012-11-16 03:30:00
9:30 AM,59.0,57.2,94,30.06,0.4,Calm,Calm,-,N/A,Fog,Fog,0,2012-11-16 04:00:00
10:00 AM,59.0,55.4,88,30.09,0.6,Calm,Calm,-,N/A,,Partly Cloudy,0,2012-11-16 04:30:00
10:30 AM,59.0,55.4,88,30.09,0.8,Calm,Calm,-,N/A,,Partly Cloudy,0,2012-11-16 05:00:00
11:30 AM,67,57,63,30.07,1,Calm,Calm,,,,Haze,,2012-11-16 06:00:00
1:00 PM,75.2,53.6,47,30.06,1.6,Variable,2.3,-,N/A,,Smoke,0,2012-11-16 07:30:00
2:30 PM,78,57,38,29.99,1,,1.2,,,,Smoke,,2012-11-16 09:00:00
3:00 PM,78.8,57.2,47,30.01,2.2,Variable,1.2,-,N/A,,Smoke,0,2012-11-16 09:30:00
3:30 PM,78.8,57.2,47,30.01,2.2,Variable,1.2,-,N/A,,Smoke,0,2012-11-16 10:00:00
4:00 PM,78.8,57.2,47,30.01,2.2,West,3.5,-,N/A,,Smoke,270,2012-11-16 10:30:00
4:30 PM,78.8,59.0,51,30.01,2.2,Variable,1.2,-,N/A,,Smoke,0,2012-11-16 11:00:00
5:00 PM,77.0,59.0,54,30.01,2.2,Calm,Calm,-,N/A,,Smoke,0,2012-11-16 11:30:00
5:30 PM,75,60,50,30.00,1,Calm,Calm,,,,Smoke,,2012-11-16 12:00:00
5:30 PM,75.2,60.8,61,30.01,1.9,Calm,Calm,-,N/A,,Smoke,0,2012-11-16 12:00:00
6:00 PM,73.4,60.8,65,30.01,1.9,Calm,Calm,-,N/A,,Smoke,0,2012-11-16 12:30:00
6:30 PM,71.6,62.6,73,30.04,1.9,Calm,Calm,-,N/A,,Smoke,0,2012-11-16 13:00:00
7:00 PM,69.8,62.6,78,30.04,1.6,Calm,Calm,-,N/A,,Haze,0,2012-11-16 13:30:00
7:30 PM,66.2,60.8,83,30.04,1.2,Calm,Calm,-,N/A,,Mist,0,2012-11-16 14:00:00
8:00 PM,64.4,60.8,88,30.04,1.2,Calm,Calm,-,N/A,,Mist,0,2012-11-16 14:30:00
8:30 PM,64,58,77,30.04,1,Calm,Calm,,,,Mist,,2012-11-16 15:00:00
8:30 PM,64.4,59.0,83,30.04,1.2,Calm,Calm,-,N/A,,Mist,0,2012-11-16 15:00:00
9:30 PM,62.6,59.0,88,30.04,0.9,Calm,Calm,-,N/A,,Mist,0,2012-11-16 16:00:00
10:00 PM,62.6,59.0,88,30.06,0.9,Calm,Calm,-,N/A,,Mist,0,2012-11-16 16:30:00
10:30 PM,60.8,59.0,94,30.06,0.7,Calm,Calm,-,N/A,,Mist,0,2012-11-16 17:00:00
11:00 PM,60.8,59.0,94,30.06,0.7,Calm,Calm,-,N/A,,Mist,0,2012-11-16 17:30:00
11:30 PM,60,58,90,30.06,1,Calm,Calm,,,,Mist,,2012-11-16 18:00:00
11:30 PM,59.0,59.0,100,30.06,0.7,Calm,Calm,-,N/A,,Mist,0,2012-11-16 18:00:00